DW4326 Weather Reports


time (UTC)temp
C
wind
direction
speed
KPH
gust
KPH
rain 1hr
cm
rain 24hr
cm
rain mn
cm
humidity
%
barometer
mb
20260506204322 12 320 3.2 12.9 0.25 1.57 1.52 92 1003.7
20260506203554 13 5 6.4 16.1 0.28 1.60 1.47 91 1003.5
20260506202057 15 173 0.0 0.0 0.18 1.68 1.35 97 1003.1
20260506200552 15 173 0.0 0.0 0.15 1.63 1.30 97 1003.0
20260506194313 15 173 0.0 0.0 0.15 1.60 1.27 97 1003.0
20260506193545 15 173 0.0 0.0 0.08 1.52 1.19 97 1003.1
20260506191311 15 173 0.0 3.2 0.08 1.50 1.17 98 1003.2
20260506190542 15 173 1.6 8.0 0.15 1.47 1.14 98 1003.3
20260506184311 14 171 0.0 6.4 0.23 1.45 1.12 97 1003.4
20260506183538 14 171 0.0 3.2 0.33 1.45 1.12 97 1003.6
20260506181305 14 171 0.0 8.0 0.43 1.42 1.09 97 1003.8
20260506175805 14 148 0.0 0.0 0.46 1.32 1.02 97 1004.1
20260506174306 14 148 0.0 1.6 0.43 1.22 0.89 96 1004.6
20260506172759 14 146 0.0 3.2 0.53 1.12 0.79 96 1004.6
20260506171259 14 144 0.0 4.8 0.46 0.99 0.66 96 1005.0
20260506165754 14 202 0.0 4.8 0.36 0.86 0.53 96 1004.8
20260506165025 14 187 0.0 6.4 0.30 0.79 0.46 95 1005.0
20260506162747 14 173 0.0 1.6 0.13 0.58 0.25 95 1004.8
20260506161249 14 67 0.0 3.2 0.10 0.53 0.20 95 1005.2
20260506155741 14 163 0.0 4.8 0.08 0.51 0.18 95 1005.3
20260506154243 13 167 0.0 9.7 0.08 0.48 0.15 95 1005.8
20260506152737 13 153 0.0 1.6 0.08 0.46 0.13 96 1006.1
20260506152007 13 160 0.0 3.2 0.08 0.43 0.10 95 1006.3
20260506145730 13 156 0.0 0.0 0.08 0.43 0.10 94 1006.4
20260506144232 13 167 0.0 6.4 0.05 0.41 0.08 93 1006.6
20260506142722 13 128 0.0 4.8 0.03 0.38 0.05 92 1006.5
20260506141225 13 167 0.0 6.4 0.00 0.36 0.03 91 1006.6
20260506135724 13 192 0.0 4.8 0.00 0.36 0.03 92 1006.4
20260506134222 13 137 0.0 6.4 0.00 0.36 0.03 93 1006.3
20260506132723 13 153 0.0 3.2 0.00 0.36 0.03 95 1006.4
20260506131220 12 144 0.0 3.2 0.00 0.36 0.03 97 1006.7
20260506125722 12 216 0.0 0.0 0.00 0.36 0.03 98 1007.1
20260506124222 12 312 0.0 0.0 0.00 0.36 0.03 98 1006.5
20260506122720 12 312 0.0 0.0 0.00 0.36 0.03 98 1006.9
20260506121221 12 312 0.0 0.0 0.00 0.36 0.03 98 1006.9
20260506120453 11 312 0.0 0.0 0.00 0.36 0.03 98 1006.9
20260506114222 11 312 0.0 0.0 0.00 0.36 0.03 98 1007.1
20260506112720 11 312 0.0 0.0 0.00 0.36 0.03 98 1006.9
20260506111220 11 312 0.0 0.0 0.00 0.36 0.03 98 1006.9
20260506110446 10 312 0.0 0.0 0.00 0.36 0.03 98 1006.9
20260506104216 10 312 0.0 0.0 0.00 0.36 0.03 97 1007.0
20260506102708 10 312 0.0 0.0 0.00 0.36 0.03 97 1006.9
20260506101207 10 312 0.0 0.0 0.00 0.36 0.03 97 1007.0
20260506095706 10 312 0.0 0.0 0.00 0.36 0.03 96 1007.0
20260506094202 10 312 0.0 0.0 0.00 0.36 0.03 96 1007.2
20260506092701 10 312 0.0 0.0 0.00 0.36 0.03 96 1007.0
20260506091201 11 312 0.0 0.0 0.00 0.36 0.03 96 1006.9
20260506085700 11 312 0.0 0.0 0.00 0.36 0.03 96 1007.2
20260506084926 11 312 0.0 0.0 0.00 0.36 0.03 96 1007.6
20260506082655 11 312 0.0 0.0 0.00 0.36 0.03 96 1007.7
20260506081148 11 312 0.0 0.0 0.00 0.36 0.03 96 1007.7
20260506072643 12 312 0.0 0.0 0.00 0.36 0.03 96 1007.4
20260506071138 12 312 0.0 0.0 0.00 0.36 0.03 96 1007.5
20260506061123 12 312 0.0 0.0 0.03 0.36 0.03 96 1007.5
20260506051120 12 311 0.0 1.6 0.00 0.33 0.00 96 1007.5
20260506044119 12 22 0.0 0.0 0.03 0.33 0.00 96 1007.3
20260506042616 12 104 0.0 0.0 0.03 0.33 0.00 96 1007.4
20260506041847 12 104 0.0 0.0 0.03 0.33 0.00 95 1007.3
20260506035610 12 103 0.0 0.0 0.03 0.33 0.33 95 1007.1
20260506034104 12 103 0.0 0.0 0.00 0.30 0.30 94 1007.2
20260506032603 12 103 0.0 0.0 0.00 0.30 0.30 94 1007.0
20260506031057 12 103 0.0 0.0 0.00 0.30 0.30 93 1007.0
20260506030330 12 101 0.0 0.0 0.00 0.30 0.30 93 1006.9
20260506024051 12 101 0.0 0.0 0.00 0.30 0.30 93 1006.9
20260506022551 13 101 0.0 0.0 0.00 0.30 0.30 92 1006.9
20260506021046 13 101 0.0 0.0 0.00 0.30 0.30 92 1006.9
20260506015546 13 101 0.0 0.0 0.00 0.30 0.30 92 1006.7
20260506014039 13 101 0.0 0.0 0.00 0.30 0.30 90 1006.6
20260506012541 13 101 0.0 0.0 0.00 0.30 0.30 88 1006.3
20260506011037 14 101 0.0 0.0 0.00 0.30 0.30 88 1006.0
20260506005534 15 101 0.0 0.0 0.00 0.30 0.30 87 1006.0
20260506004035 15 101 0.0 4.8 0.00 0.30 0.30 86 1005.9
20260506002534 15 52 0.0 1.6 0.00 0.30 0.30 87 1005.7
20260506001034 15 88 0.0 1.6 0.00 0.30 0.30 89 1005.8
20260505235530 15 288 0.0 6.4 0.00 0.30 0.30 88 1005.7
20260505234030 15 113 1.6 9.7 0.00 0.30 0.30 88 1005.9
20260505232530 15 24 0.0 0.0 0.00 0.30 0.30 89 1005.8
20260505231032 16 24 0.0 8.0 0.00 0.30 0.30 87 1005.6
20260505225532 16 23 0.0 6.4 0.00 0.30 0.30 87 1005.6
20260505224028 17 111 0.0 12.9 0.00 0.30 0.30 83 1005.1
20260505222528 17 51 1.6 14.5 0.00 0.30 0.30 83 1005.2
20260505221024 16 302 1.6 12.9 0.00 0.30 0.30 87 1005.2
20260505215523 16 198 0.0 0.0 0.00 0.30 0.30 91 1005.3
20260505214755 16 198 0.0 6.4 0.03 0.30 0.30 90 1005.0
20260505212522 16 196 3.2 8.0 0.18 0.30 0.30 91 1004.6
20260505211023 16 196 0.0 9.7 0.30 0.30 0.30 91 1004.2
20260505205520 16 60 0.0 6.4 0.30 0.30 0.30 88 1004.5